[[{"header":{"parameterUnit":"m.s-1","parameterCategory":1,"la1":30.2991,"la2":30.254,"lo1":-89.0895,"lo2":-89.0444,"dy":0.0017,"dx":0.0017,"nx":28,"ny":28,"refTime":"2024-08-30T03:00:00:Z","depth":0,"parameterNumber":2,"parameterNumberName":"U-component_of_WINDS"},"data":[0,0,0,0,0,0,0,0,0,0,0,0,0,0,0,0,0,0,0,0,0,0,0,0,0,0,0,0,0,0,0,0,0,0,0,0,0,0,0,0,0,0,0,0,0,0,0,0,0,0,0,0,0,0,0,0,0,0,-2.1032,-2.1033,0,-2.1065,-2.1065,-2.1065,-2.1053,-2.1052,-2.1051,-2.1051,-2.108,-2.1081,-2.1083,0,0,0,0,0,0,0,0,0,0,0,0,0,-2.0957,-2.0959,-2.1032,-2.1033,-2.1033,-2.1064,-2.1065,-2.1065,-2.1053,-2.1052,-2.1051,-2.105,-2.1079,-2.1081,-2.1083,0,0,0,0,0,0,0,0,0,0,0,0,0,-2.099,-2.0959,-2.1032,-2.1031,-2.1031,-2.1064,-2.1065,-2.1065,-2.1053,-2.1052,-2.1051,-2.105,-2.1079,-2.1081,-2.1083,-2.1119,0,0,-2.109,-2.1091,0,0,0,0,0,0,0,0,-2.0988,-2.0992,-2.1031,-2.1031,-2.1031,-2.1054,-2.1049,-2.1083,-2.1053,-2.1045,-2.1051,-2.1049,-2.1072,-2.1074,-2.1083,-2.112,-2.1121,-2.109,-2.1091,-2.1092,-2.1093,0,0,0,0,0,0,0,-2.0986,-2.0991,-2.1045,-2.1031,-2.1032,-2.1028,-2.1031,-2.1056,-2.1064,-2.1045,-2.1044,-2.1049,-2.1072,-2.1081,-2.1083,-2.1122,-2.109,-2.1092,-2.1093,-2.1094,-2.119,-2.1191,0,0,0,0,0,0,-2.0984,-2.0989,-2.1044,-2.1046,-2.1007,-2.103,-2.1034,-2.1047,-2.1064,-2.1065,-2.105,-2.1048,-2.1078,-2.1081,-2.1084,-2.1126,-2.1092,-2.1094,-2.1096,-2.1188,-2.119,-2.1191,0,0,0,0,0,0,-2.0982,-2.0989,-2.1043,-2.1017,-2.1024,-2.1032,-2.1048,-2.1049,-2.1058,-2.1067,-2.1068,-2.1057,-2.1077,-2.1081,-2.111,-2.1127,-2.1095,-2.1097,-2.1187,-2.1189,-2.1191,-2.1211,0,0,0,0,0,0,-2.098,-2.0988,-2.1002,-2.1018,-2.1025,-2.1069,-2.1049,-2.105,-2.1062,-2.106,-2.1074,-2.1076,-2.1076,-2.1107,-2.1113,-2.113,-2.1099,-2.1186,-2.1188,-2.119,-2.1209,-2.1213,-2.1217,0,0,0,0,0,-2.0977,-2.1006,-2.1003,-2.101,-2.1043,-2.107,-2.1074,-2.1075,-2.1063,-2.1077,-2.1083,-2.1075,-2.1125,-2.111,-2.1116,-2.1134,-2.1184,-2.1187,-2.119,-2.1207,-2.1212,-2.1217,0,0,0,0,0,0,-2.099,-2.1008,-2.1005,-2.104,-2.1054,-2.1068,-2.1085,-2.1081,-2.1097,-2.1095,-2.1095,-2.1098,-2.1128,-2.1134,-2.1118,-2.117,-2.1153,-2.1157,-2.1164,-2.1169,-2.1173,-2.117,-2.1101,0,0,0,0,0,-2.0998,-2.1019,-2.1033,-2.1062,-2.1069,-2.1076,-2.1088,-2.1088,-2.1102,-2.1107,-2.1115,-2.1128,-2.1147,-2.1159,-2.1176,-2.1211,-2.1213,-2.1226,-2.123,-2.1234,-2.1236,-2.1254,-2.126,-2.12,-2.12,-2.12,0,0,-2.1012,-2.1024,-2.1037,-2.1065,-2.1076,-2.1097,-2.1081,-2.1104,-2.1119,-2.111,-2.1138,-2.1145,-2.1159,-2.1191,-2.1205,-2.1197,-2.1254,-2.1237,-2.124,-2.1241,-2.1258,-2.1263,-2.1268,-2.1202,-2.1202,-2.1202,0,0,-2.1049,-2.1061,-2.1086,-2.1098,-2.1115,-2.112,-2.1126,-2.1142,-2.1146,-2.1175,-2.1169,-2.1186,-2.1219,-2.1229,-2.1238,-2.1281,-2.1274,-2.1287,-2.1308,-2.1325,-2.133,-2.1334,-2.1348,-2.1353,-2.129,-2.129,-2.129,0,-2.1064,-2.1096,-2.11,-2.1123,-2.1135,-2.113,-2.1155,-2.1166,-2.1188,-2.1196,-2.1187,-2.1228,-2.1237,-2.1271,-2.1281,-2.129,-2.1296,-2.1284,-2.1329,-2.1333,-2.1337,-2.135,-2.1356,-2.1292,-2.1292,-2.1291,-2.1291,0,-2.1113,-2.1136,-2.1154,-2.1177,-2.1191,-2.1215,-2.1222,-2.1236,-2.1235,-2.124,-2.1269,-2.1281,-2.1301,-2.1309,-2.1308,-2.1343,-2.1338,-2.1329,-2.1312,-2.1344,-2.1356,-2.1362,-2.1294,-2.1293,-2.1293,-2.1292,0,0,-2.1156,-2.1182,-2.1189,-2.1199,-2.1218,-2.1235,-2.126,-2.128,-2.1292,-2.1308,-2.1327,-2.1355,-2.1348,-2.1359,-2.1359,-2.1375,-2.1406,-2.1364,-2.1365,-2.137,-2.1444,-2.1449,-2.1455,-2.1403,-2.1404,-2.1405,-2.1442,0,-2.1193,-2.1236,-2.1241,-2.1279,-2.1299,-2.1296,-2.1317,-2.1331,-2.1337,-2.1355,-2.1361,-2.1381,-2.1371,-2.1377,-2.1393,-2.1399,-2.1421,-2.1397,-2.1419,-2.142,-2.1413,-2.1461,-2.1466,-2.1501,-2.1447,-2.1448,-2.1449,0,-2.1241,-2.126,-2.13,-2.1318,-2.1326,-2.1345,-2.1365,-2.1382,-2.1398,-2.1401,-2.1415,-2.1413,-2.1437,-2.1421,-2.1454,-2.1437,-2.1447,-2.1452,-2.1453,-2.1453,-2.1435,-2.1461,-2.1512,-2.1516,-2.1457,-2.1456,-2.1456,0,-2.1266,-2.1302,-2.133,-2.134,-2.1361,-2.1374,-2.1383,-2.1398,-2.1411,-2.1428,-2.1436,-2.1455,-2.1465,-2.148,-2.1483,-2.1472,-2.1515,-2.15,-2.1517,-2.1517,-2.1524,-2.1523,-2.1576,-2.1534,-2.1534,-2.1534,-2.1534,0,-2.1306,-2.133,-2.1342,-2.136,-2.1387,-2.1392,-2.1419,-2.1427,-2.1441,-2.1459,-2.1458,-2.1475,-2.148,-2.1498,-2.1501,-2.1526,-2.1531,-2.1534,-2.1534,-2.1533,-2.1532,-2.1537,-2.1534,-2.1536,-2.1535,-2.1535,-2.1535,0,-2.1337,-2.1347,-2.1377,-2.1396,-2.1401,-2.1421,-2.1436,-2.1452,-2.1459,-2.1483,-2.1488,-2.1499,-2.152,-2.1526,-2.155,-2.1552,-2.1582,-2.1581,-2.1577,-2.1576,-2.1593,-2.159,-2.1648,-2.1656,-2.1611,-2.1612,-2.1612,0,-2.136,-2.1379,-2.1401,-2.1414,-2.1424,-2.1445,-2.1458,-2.1464,-2.1478,-2.1498,-2.1512,-2.1533,-2.155,-2.1583,-2.1592,-2.1611,-2.1609,-2.1628,-2.1612,-2.161,-2.1607,-2.1605,-2.1606,-2.163,-2.1631,-2.1631,-2.1632,0,-2.14,-2.1404,-2.1424,-2.1446,-2.1462,-2.1479,-2.1495,-2.1506,-2.1514,-2.1529,-2.1552,-2.1565,-2.1591,-2.1612,-2.1631,-2.164,-2.1636,-2.1637,-2.1642,-2.164,-2.1636,-2.1636,-2.1583,-2.1635,-2.1635,-2.1635,-2.1634,-2.1634,-2.1427,-2.1444,-2.1462,-2.1484,-2.1497,-2.1513,-2.1529,-2.1539,-2.1558,-2.1581,-2.1584,-2.1607,-2.1623,-2.1649,-2.1659,-2.1676,-2.167,-2.1678,-2.1679,-2.168,-2.1681,-2.1635,-2.168,-2.168,-2.168,-2.168,-2.168,0,-2.1465,-2.1477,-2.1498,-2.1522,-2.1539,-2.1537,-2.1556,-2.1569,-2.1591,-2.1606,-2.1624,-2.1649,-2.1669,-2.1681,-2.1701,-2.1713,-2.1712,-2.1718,-2.1715,-2.1717,-2.1686,-2.1679,-2.1718,-2.1718,-2.1718,-2.1718,-2.1718,-2.1718,-2.1487,-2.1515,-2.1522,-2.1557,-2.1568,-2.1592,-2.1603,-2.1617,-2.1629,-2.1658,-2.1675,-2.1684,-2.1697,-2.1718,-2.1737,-2.1739,-2.1746,-2.1752,-2.1754,-2.1724,-2.172,-2.1716,-2.1709,-2.1754,-2.1754,-2.1784,-2.1784,-2.1784]},{"header":{"parameterUnit":"m.s-1","parameterCategory":1,"la1":30.2991,"la2":30.254,"lo1":-89.0895,"lo2":-89.0444,"dy":0.0017,"dx":0.0017,"nx":28,"ny":28,"refTime":"2024-08-30T03:00:00:Z","depth":0,"parameterNumber":3,"parameterNumberName":"V-component_of_WINDS"},"data":[0,0,0,0,0,0,0,0,0,0,0,0,0,0,0,0,0,0,0,0,0,0,0,0,0,0,0,0,0,0,0,0,0,0,0,0,0,0,0,0,0,0,0,0,0,0,0,0,0,0,0,0,0,0,0,0,0,0,2.9671,2.9672,0,2.9715,2.9716,2.9716,2.9684,2.9682,2.9681,2.9679,2.9724,2.9727,2.9729,0,0,0,0,0,0,0,0,0,0,0,0,0,2.956,2.9562,2.9671,2.9672,2.9672,2.9715,2.9716,2.9717,2.9684,2.9682,2.968,2.9679,2.9723,2.9726,2.9729,0,0,0,0,0,0,0,0,0,0,0,0,0,2.9607,2.9563,2.9671,2.9661,2.9661,2.9715,2.9716,2.9717,2.9684,2.9682,2.968,2.9678,2.9722,2.9726,2.973,2.9796,0,0,2.9741,2.9743,0,0,0,0,0,0,0,0,2.9604,2.9611,2.9662,2.9662,2.9662,2.9692,2.9693,2.9743,2.9685,2.9675,2.9679,2.9677,2.9715,2.9719,2.9732,2.9798,2.98,2.9742,2.9744,2.9746,2.9747,0,0,0,0,0,0,0,2.9601,2.9609,2.9689,2.9663,2.9663,2.9655,2.9659,2.9703,2.9707,2.9676,2.9674,2.9679,2.9715,2.9729,2.9733,2.9801,2.9742,2.9745,2.9747,2.9749,2.9926,2.9928,0,0,0,0,0,0,2.9599,2.9606,2.9687,2.969,2.9627,2.9659,2.9664,2.9684,2.9706,2.9708,2.9681,2.9678,2.9723,2.9729,2.9735,2.9815,2.9746,2.9749,2.9751,2.9924,2.9927,2.9929,0,0,0,0,0,0,2.9596,2.9606,2.9686,2.9648,2.9657,2.9663,2.9687,2.9686,2.97,2.971,2.9711,2.9695,2.9722,2.9729,2.9782,2.9816,2.9751,2.9754,2.9921,2.9925,2.9928,2.9976,0,0,0,0,0,0,2.9593,2.9606,2.963,2.9648,2.9659,2.9732,2.9689,2.9689,2.9707,2.9703,2.9723,2.9724,2.9721,2.9776,2.9786,2.982,2.9757,2.9918,2.9922,2.9927,2.9971,2.9981,2.9989,0,0,0,0,0,2.9589,2.9642,2.9632,2.9642,2.969,2.9734,2.974,2.9735,2.971,2.9735,2.9742,2.9724,2.9811,2.9782,2.9792,2.9828,2.9915,2.9921,2.9926,2.9967,2.9979,2.9989,0,0,0,0,0,0,2.9626,2.9644,2.9633,2.9692,2.9712,2.9728,2.9759,2.9747,2.9773,2.9768,2.9761,2.9766,2.9821,2.983,2.9797,2.9895,2.9859,2.9867,2.9887,2.9898,2.9907,2.9903,2.9761,0,0,0,0,0,2.9642,2.9675,2.9688,2.974,2.975,2.9753,2.9772,2.9767,2.9786,2.9794,2.9805,2.9825,2.9857,2.9878,2.9908,2.9973,2.9977,3.0003,3.0012,3.0019,3.0026,3.0062,3.0074,2.9947,2.9947,2.9947,0,0,2.9673,2.9687,2.9708,2.9747,2.9762,2.9797,2.976,2.9799,2.9825,2.98,2.985,2.9859,2.9881,2.9941,2.9967,2.995,3.0062,3.0026,3.0032,3.0034,3.0069,3.0081,3.0092,2.9951,2.995,2.995,0,0,2.9749,2.9762,2.9807,2.9823,2.9845,2.9848,2.9859,2.9877,2.9882,2.9933,2.9916,2.9947,3.0002,3.0019,3.0035,3.012,3.0105,3.013,3.0176,3.0212,3.0222,3.0231,3.0262,3.0273,3.0137,3.0137,3.0137,0,2.9785,2.9837,2.9831,2.9872,2.989,2.987,2.9916,2.9932,2.9963,2.9977,2.9957,3.0027,3.0041,3.0105,3.0126,3.0139,3.0152,3.0127,3.0221,3.023,3.0238,3.0268,3.0279,3.014,3.014,3.0139,3.0139,0,2.9881,2.9918,2.9951,2.9983,3.0006,3.0049,3.005,3.0074,3.0067,3.0072,3.0125,3.0141,3.0175,3.0189,3.0183,3.0253,3.0242,3.0222,3.0186,3.0253,3.0281,3.0292,3.0144,3.0143,3.0142,3.0142,0,0,2.9979,3.0009,3.0021,3.0037,3.0061,3.009,3.0133,3.0167,3.0188,3.0211,3.0247,3.0296,3.0278,3.0296,3.0291,3.0323,3.0391,3.0299,3.03,3.0316,3.0471,3.0487,3.05,3.0382,3.0384,3.0385,3.047,0,3.0056,3.0131,3.0129,3.0199,3.0234,3.0216,3.0254,3.0274,3.028,3.0311,3.0318,3.0353,3.0326,3.0337,3.0368,3.0376,3.0422,3.037,3.0416,3.0418,3.0411,3.0514,3.053,3.0609,3.0481,3.0483,3.0484,0,3.0156,3.0184,3.0257,3.0279,3.0294,3.0328,3.0359,3.0389,3.0412,3.0414,3.0436,3.0427,3.0472,3.0436,3.0498,3.0463,3.0482,3.0489,3.0492,3.0496,3.0455,3.0522,3.0634,3.0646,3.0501,3.05,3.0498,0,3.0222,3.0277,3.0329,3.0342,3.0369,3.0393,3.0405,3.0426,3.0447,3.0475,3.0489,3.0522,3.054,3.0566,3.0567,3.054,3.0631,3.0593,3.0635,3.0635,3.0654,3.0653,3.0771,3.0666,3.0666,3.0665,3.0665,0,3.0308,3.0354,3.0359,3.0391,3.0443,3.044,3.0491,3.0501,3.052,3.0555,3.0542,3.0574,3.0573,3.0607,3.0608,3.066,3.0668,3.0672,3.0672,3.0673,3.0673,3.0686,3.068,3.0668,3.0668,3.0667,3.0667,0,3.039,3.0394,3.045,3.0471,3.0478,3.0515,3.0534,3.0565,3.057,3.0614,3.0624,3.0634,3.0673,3.0676,3.0721,3.0722,3.0786,3.0779,3.0778,3.0777,3.0819,3.0815,3.095,3.0968,3.085,3.0851,3.0852,0,3.0445,3.048,3.0506,3.0528,3.0542,3.0577,3.0599,3.0599,3.0622,3.0653,3.068,3.0718,3.0748,3.0812,3.0823,3.0858,3.0853,3.0897,3.0858,3.0859,3.0854,3.0853,3.0857,3.0905,3.0906,3.0907,3.0908,0,3.0542,3.0544,3.0576,3.061,3.0636,3.0663,3.0688,3.0707,3.0709,3.0737,3.0777,3.08,3.0847,3.0885,3.092,3.0933,3.0922,3.0921,3.0932,3.0935,3.0933,3.0936,3.08,3.0918,3.0917,3.0916,3.0915,3.0915,3.0613,3.0644,3.0668,3.0705,3.0724,3.0748,3.0778,3.0789,3.0822,3.0861,3.0858,3.0903,3.0927,3.0973,3.0989,3.1025,3.101,3.1026,3.103,3.1035,3.1039,3.0927,3.1031,3.1031,3.103,3.103,3.103,0,3.0711,3.0726,3.076,3.0795,3.0825,3.0812,3.084,3.0865,3.0905,3.0928,3.0959,3.1006,3.1044,3.1059,3.1096,3.1122,3.1118,3.1132,3.113,3.1134,3.105,3.1037,3.1135,3.1135,3.1135,3.1135,3.1135,3.1134,3.0765,3.0818,3.0823,3.0886,3.09,3.0944,3.0961,3.0984,3.1003,3.1056,3.1088,3.1097,3.1118,3.1157,3.1192,3.1195,3.121,3.1227,3.1228,3.115,3.1139,3.1129,3.1117,3.123,3.123,3.1309,3.131,3.131]}]]